Regional Weather Roundup
Issued by NWS

Home | Current Version | Previous Version | Graphics & Text | Print | Product List | Glossary On
Versions: 1 2 3 4 5 6 7 8 9 10 11 12 13 14 15 16 17 18 19 20 21 22 23 24 25 26 27 28 29 30 31 32 33 34 35 36 37 38 39 40 41 42 43 44 45 46 47 48 49 50
000
ASUS43 KLOT 262209
RWRIL

ILLINOIS REGIONAL WEATHER ROUNDUP
NATIONAL WEATHER SERVICE CHICAGO/ROMEOVILLE IL
500 PM CDT SAT MAY 26 2018

NOTE: "FAIR" INDICATES FEW OR NO CLOUDS BELOW 12,000 FEET WITH NO
SIGNIFICANT WEATHER AND/OR OBSTRUCTIONS TO VISIBILITY.

* THESE STATIONS ARE NOT UNDER NWS QUALITY CONTROL. THEY ALSO MAY NOT
  REPORT WEATHER SUCH AS PRECIPITATION OR FOG.

ILZ001-002-007-009-015-016-024-262300-
NORTHWEST ILLINOIS

CITY           SKY/WX    TMP DP  RH WIND       PRES   REMARKS
MOLINE         FAIR      93  64  38 W6        29.72F HX  94
STERLING*        N/A    N/A N/A N/A MISG        N/A
SAVANNA*       FAIR      88  68  51 SW5       29.75S HX  92
$$

ILZ003-004-008-010-011-017-018-262300-
NORTH CENTRAL ILLINOIS

CITY           SKY/WX    TMP DP  RH WIND       PRES   REMARKS
ROCKFORD       FAIR      88  62  41 W7        29.76F HX  88
FREEPORT*      FAIR      87  64  46 W5        29.77S HX  88
ROCHELLE*      FAIR      88  60  38 W6        29.76S HX  88
DE KALB*       FAIR      88  62  40 W7        29.76F HX  88
PERU*          FAIR      92  66  42 SW6       29.75F HX  94
$$

ILZ005-006-012>014-019>023-262300-
NORTHEAST ILLINOIS

CITY           SKY/WX    TMP DP  RH WIND       PRES   REMARKS
CHICAGO-OHARE  FAIR      89  59  36 W9        29.73F HX  88
CHICAGO-MIDWAY FAIR      88  61  40 E7        29.73F HX  88
AURORA         FAIR      89  62  40 W6G16     29.74F HX  89
LANSING*       FAIR      87  65  47 W6        29.75F HX  88
JOLIET*        FAIR      90  62  38 NW5       29.74F HX  90
WAUKEGAN       FAIR      79  62  56 SE10      29.74F HX  80
DUPAGE AIRPORT FAIR      89  61  38 MISG      29.74F HX  89
KANKAKEE*      FAIR      89  62  41 N10       29.76S HX  89
WHEELING       FAIR      91  61  36 NW8       29.75F HX  91
MORRIS*        FAIR      91  61  37 W9        29.74F HX  90
ROMEOVILLE*    FAIR      89  60  37 W9        29.75F HX  89
$$

LMZ740>746-262300-
SOUTHERN LAKE MICHIGAN

STATION/POSITION SKY/WX   TEMP    WIND        PRES    VSBY  WAVE
                          AIR SEA DIR/SP/G                  HT/PER
                          (F)     (DEG/KT/KT) (MB)    (MI)  (FT/S)
SOUTHERN BUOY              55 40  180/  8/  8 1007.7F         0
WILMETTE HARBOR            65 59  140/  6/  6   N/A           0
HARRISON CRIB              74     110/ 10/ 11   N/A
BURNHAM HARBOR                    120/  1/  4   N/A
CALUMET HARBOR             75      70/  6/  8 1007.4F
BURNS HARBOR               74      70/  8/  9 1008.5S
MICHIGAN CITY              75      30/  7/  7   N/A
MICHIGAN CITY 6N           73 68   90/  4/  4   N/A           1
ST. JOSEPH                 75 69  200/  2/  2 1007.5          0
$$

ILZ025>027-034>036-040-047-049-050-058-095>099-262300-
WEST-CENTRAL ILLINOIS

CITY           SKY/WX    TMP DP  RH WIND       PRES   REMARKS
QUINCY         SUNNY     91  67  44 SW13      29.74F HX  94
GALESBURG*     FAIR      90  70  52 SW9       29.75F HX  95
MACOMB*        CLOUDY    83  73  73 S7        29.77F HX  89
JACKSONVILLE*  MOSUNNY   88  71  57 S9        29.76F HX  93
PITTSFIELD*    SUNNY     89  72  56 SW6       29.78S HX  96
$$

ILZ028>032-037-038-041>044-048-051>054-059>061-262300-
CENTRAL ILLINOIS

CITY           SKY/WX    TMP DP  RH WIND       PRES   REMARKS
PONTIAC        FAIR      89  63  42 S6        29.76F HX  89
BLOOMINGTON    FAIR      89  64  43 SW10      29.78F HX  90
DECATUR        FAIR      89  64  43 W7        29.77F HX  90
PEORIA         FAIR      87  67  51 W10       29.75F HX  90
LACON*         FAIR      88  66  47 SW9       29.74F HX  90
LINCOLN*       FAIR      91  61  36 W3        29.76F HX  90
SPRINGFIELD    FAIR      90  65  43 SW5       29.76F HX  92
TAYLORVILLE    FAIR      87  65  47 SW6       29.77F HX  89
$$

ILZ033-039-045-046-055>057-062-063-262300-
EAST-CENTRAL ILLINOIS

CITY           SKY/WX    TMP DP  RH WIND       PRES   REMARKS
CHAMPAIGN      FAIR      88  65  46 W8        29.78F HX  90
DANVILLE*      FAIR      89  62  41 W10       29.75S HX  89
RANTOUL*       FAIR      88  68  52 SW6       29.77F HX  91
MATTOON        FAIR      87  68  52 W6        29.77F HX  90
PARIS*         FAIR      90  66  45 W9        29.78S HX  92
$$

ILZ079-100>102-262300-
SOUTHWEST ILLINOIS

CITY           SKY/WX    TMP DP  RH WIND       PRES   REMARKS
ALTON          MOSUNNY   91  70  49 SW7       29.78F HX  97
BELLEVILLE     MOSUNNY   90  66  45 SW5       29.77F HX  92
CAHOKIA*       MOSUNNY   90  66  45 SW7       29.77F HX  92
SPARTA*        MOSUNNY   85  73  67 S5        29.80F HX  91
$$

ILZ064>066-069>071-074>076-080>082-084>086-088>090-092>094-262300-
SOUTH-CENTRAL ILLINOIS

CITY           SKY/WX    TMP DP  RH WIND       PRES   REMARKS
CARBONDALE     FAIR      87  71  58 SW9       29.79F HX  93
CAIRO*         FAIR      86  69  57 CALM      29.80F HX  90
EFFINGHAM*     FAIR      89  65  45 SW5       29.79F HX  90
MARION         MOSUNNY   84  68  58 S9        29.81F HX  87
MT. VERNON     FAIR      87  68  52 W5        29.79F HX  90
CENTRALIA*     MOSUNNY   88  71  55 S8        29.78F HX  93
SALEM*         FAIR      89  65  45 SW7       29.79F HX  90
METROPOLIS*    FAIR      87  69  55 SW5       29.82F HX  91
$$

ILZ067-068-072-073-078-083-087-091-262300-
SOUTHEAST ILLINOIS

CITY           SKY/WX    TMP DP  RH WIND       PRES   REMARKS
LAWRENCEVILLE  FAIR      90  63  40 W5        29.78F HX  91
FLORA*         FAIR      90  66  45 W6        29.79F HX  92
FAIRFIELD*     FAIR      88  64  45 W5        29.77F HX  89
HARRISBURG*    FAIR      85  71  63 SW6       29.81F HX  90
ROBINSON*      FAIR      88  66  47 NW9       29.78S HX  90
CARMI*         FAIR      88  68  51 SW10      29.79F HX  92
$$

ABBREVIATIONS USED IN REMARKS
   TC - TEMPERATURE IN CELSIUS
  WCI - WIND CHILL INDEX
   HX - HEAT INDEX
  VSB - VISIBILITY
$$





USA.gov is the U.S. government's official web portal to all federal, state and local government web resources and services.